Time,TemperatureF,DewpointF,PressureIn,WindDirection,WindDirectionDegrees,WindSpeedMPH,WindSpeedGustMPH,Humidity,HourlyPrecipIn,Conditions,Clouds,dailyrainin,SoftwareType,DateUTC
2013-03-27 00:00:00,31.5,24.5,30.16,North,5,0.0,0.0,75,0.00,,---,0.00,VWS V14.01,2013-03-27 04:00:00,
2013-03-27 00:05:00,31.3,24.6,30.16,North,355,0.0,0.0,76,0.00,,---,0.00,VWS V14.01,2013-03-27 04:05:00,
2013-03-27 00:10:00,31.2,24.8,30.16,WNW,303,0.0,0.0,77,0.00,,---,0.00,VWS V14.01,2013-03-27 04:10:00,
2013-03-27 00:15:00,31.0,25.0,30.16,NNW,338,0.0,0.0,78,0.00,,---,0.00,VWS V14.01,2013-03-27 04:15:00,
2013-03-27 00:20:00,30.9,25.2,30.15,North,360,0.0,0.0,79,0.00,,---,0.00,VWS V14.01,2013-03-27 04:20:00,
2013-03-27 00:25:00,30.7,25.3,30.15,WNW,292,0.0,0.0,80,0.00,,---,0.00,VWS V14.01,2013-03-27 04:25:00,
2013-03-27 00:30:00,30.7,25.6,30.15,WNW,292,0.0,0.0,81,0.00,,---,0.00,VWS V14.01,2013-03-27 04:30:00,
2013-03-27 00:35:00,30.6,25.5,30.15,WNW,292,0.0,0.0,81,0.00,,---,0.00,VWS V14.01,2013-03-27 04:35:00,
2013-03-27 00:40:00,30.6,25.8,30.15,NNW,336,0.0,0.0,82,0.00,,---,0.00,VWS V14.01,2013-03-27 04:40:00,
2013-03-27 00:45:00,30.6,25.8,30.15,North,360,0.0,0.0,82,0.00,,---,0.00,VWS V14.01,2013-03-27 04:45:00,
2013-03-27 00:50:00,30.6,25.8,30.15,WNW,301,0.0,0.0,82,0.00,,---,0.00,VWS V14.01,2013-03-27 04:50:00,
2013-03-27 00:55:00,30.6,25.8,30.15,WNW,301,0.0,0.0,82,0.00,,---,0.00,VWS V14.01,2013-03-27 04:55:00,
2013-03-27 01:00:00,30.4,25.9,30.15,WNW,282,0.0,0.0,83,0.00,,---,0.00,VWS V14.01,2013-03-27 05:00:00,
2013-03-27 01:05:00,30.3,25.8,30.15,WNW,284,0.0,0.0,83,0.00,,---,0.00,VWS V14.01,2013-03-27 05:05:00,
2013-03-27 01:10:00,30.3,25.8,30.15,West,275,0.0,0.0,83,0.00,,---,0.00,VWS V14.01,2013-03-27 05:10:00,
2013-03-27 01:15:00,30.1,25.9,30.15,West,275,0.0,0.0,84,0.00,,---,0.00,VWS V14.01,2013-03-27 05:15:00,
2013-03-27 01:20:00,30.0,25.8,30.15,West,275,0.0,0.0,84,0.00,,---,0.00,VWS V14.01,2013-03-27 05:20:00,
2013-03-27 01:25:00,30.0,25.8,30.15,WNW,285,0.0,0.0,84,0.00,,---,0.00,VWS V14.01,2013-03-27 05:25:00,
2013-03-27 01:31:00,29.8,25.9,30.15,WNW,301,0.0,0.0,85,0.00,,---,0.00,VWS V14.01,2013-03-27 05:31:00,
2013-03-27 01:36:00,29.8,26.1,30.15,WNW,301,0.0,0.0,86,0.00,,---,0.00,VWS V14.01,2013-03-27 05:36:00,
2013-03-27 01:41:00,30.0,26.3,30.15,West,265,0.0,0.0,86,0.00,,---,0.00,VWS V14.01,2013-03-27 05:41:00,
2013-03-27 01:46:00,29.8,26.1,30.15,West,265,0.0,0.0,86,0.00,,---,0.00,VWS V14.01,2013-03-27 05:46:00,
2013-03-27 01:51:00,30.0,26.3,30.15,WNW,286,0.0,0.0,86,0.00,,---,0.00,VWS V14.01,2013-03-27 05:51:00,
2013-03-27 01:56:00,30.0,26.3,30.14,WNW,290,0.0,0.0,86,0.00,,---,0.00,VWS V14.01,2013-03-27 05:56:00,
2013-03-27 02:01:00,30.0,26.3,30.14,WNW,290,0.0,0.0,86,0.00,,---,0.00,VWS V14.01,2013-03-27 06:01:00,
2013-03-27 02:07:00,30.0,26.3,30.14,WNW,296,0.0,0.0,86,0.00,,---,0.00,VWS V14.01,2013-03-27 06:07:00,
2013-03-27 02:12:00,30.0,26.6,30.14,WNW,296,0.0,0.0,87,0.00,,---,0.00,VWS V14.01,2013-03-27 06:12:00,
2013-03-27 02:17:00,30.1,26.7,30.14,WNW,296,0.0,0.0,87,0.00,,---,0.00,VWS V14.01,2013-03-27 06:17:00,
2013-03-27 02:22:00,30.1,26.7,30.14,WNW,296,0.0,0.0,87,0.00,,---,0.00,VWS V14.01,2013-03-27 06:22:00,
2013-03-27 02:27:00,30.1,26.7,30.14,North,360,0.0,0.0,87,0.00,,---,0.00,VWS V14.01,2013-03-27 06:27:00,
2013-03-27 02:32:00,30.1,26.7,30.14,North,360,0.0,0.0,87,0.00,,---,0.00,VWS V14.01,2013-03-27 06:32:00,
2013-03-27 02:37:00,30.1,26.7,30.14,North,360,0.0,0.0,87,0.00,,---,0.00,VWS V14.01,2013-03-27 06:37:00,
2013-03-27 02:42:00,30.1,26.7,30.14,North,360,0.0,0.0,87,0.00,,---,0.00,VWS V14.01,2013-03-27 06:42:00,
2013-03-27 02:47:00,30.1,26.7,30.14,North,360,0.0,0.0,87,0.00,,---,0.00,VWS V14.01,2013-03-27 06:47:00,
2013-03-27 02:52:00,30.0,26.6,30.14,North,360,0.0,0.0,87,0.00,,---,0.00,VWS V14.01,2013-03-27 06:52:00,
2013-03-27 02:57:00,30.0,26.6,30.14,North,360,0.0,0.0,87,0.00,,---,0.00,VWS V14.01,2013-03-27 06:57:00,
2013-03-27 03:02:00,29.8,26.4,30.14,North,360,0.0,0.0,87,0.00,,---,0.00,VWS V14.01,2013-03-27 07:02:00,
2013-03-27 03:07:00,29.7,26.3,30.14,North,360,0.0,0.0,87,0.00,,---,0.00,VWS V14.01,2013-03-27 07:07:00,
2013-03-27 03:12:00,29.5,26.1,30.14,North,360,0.0,0.0,87,0.00,,---,0.00,VWS V14.01,2013-03-27 07:12:00,
2013-03-27 03:17:00,29.4,26.0,30.14,North,360,0.0,0.0,87,0.00,,---,0.00,VWS V14.01,2013-03-27 07:17:00,
2013-03-27 03:22:00,29.4,26.3,30.14,North,360,0.0,0.0,88,0.00,,---,0.00,VWS V14.01,2013-03-27 07:22:00,
2013-03-27 03:27:00,29.3,26.2,30.14,North,360,0.0,0.0,88,0.00,,---,0.00,VWS V14.01,2013-03-27 07:27:00,
2013-03-27 03:32:00,29.1,26.0,30.14,North,360,0.0,0.0,88,0.00,,---,0.00,VWS V14.01,2013-03-27 07:32:00,
2013-03-27 03:37:00,29.1,26.3,30.14,North,360,0.0,0.0,89,0.00,,---,0.00,VWS V14.01,2013-03-27 07:37:00,
2013-03-27 03:43:00,29.1,26.3,30.14,North,360,0.0,0.0,89,0.00,,---,0.00,VWS V14.01,2013-03-27 07:43:00,
2013-03-27 03:48:00,29.1,26.3,30.14,North,360,0.0,0.0,89,0.00,,---,0.00,VWS V14.01,2013-03-27 07:48:00,
2013-03-27 03:53:00,29.1,26.3,30.14,North,360,0.0,0.0,89,0.00,,---,0.00,VWS V14.01,2013-03-27 07:53:00,
2013-03-27 03:58:00,29.1,26.5,30.14,NW,304,0.0,0.0,90,0.00,,---,0.00,VWS V14.01,2013-03-27 07:58:00,
2013-03-27 04:03:00,29.1,26.5,30.14,NW,306,0.0,0.0,90,0.00,,---,0.00,VWS V14.01,2013-03-27 08:03:00,
2013-03-27 04:08:00,29.1,26.5,30.14,NW,306,0.0,0.0,90,0.00,,---,0.00,VWS V14.01,2013-03-27 08:08:00,
2013-03-27 04:13:00,29.1,26.5,30.13,WSW,242,0.0,0.0,90,0.00,,---,0.00,VWS V14.01,2013-03-27 08:13:00,
2013-03-27 04:18:00,29.0,26.4,30.13,WSW,242,0.0,0.0,90,0.00,,---,0.00,VWS V14.01,2013-03-27 08:18:00,
2013-03-27 04:23:00,28.8,26.2,30.14,WSW,242,0.0,0.0,90,0.00,,---,0.00,VWS V14.01,2013-03-27 08:23:00,
2013-03-27 04:28:00,28.8,26.2,30.13,WSW,242,0.0,0.0,90,0.00,,---,0.00,VWS V14.01,2013-03-27 08:28:00,
2013-03-27 04:33:00,28.8,26.5,30.13,WSW,242,0.0,0.0,91,0.00,,---,0.00,VWS V14.01,2013-03-27 08:33:00,
2013-03-27 04:38:00,28.8,26.5,30.13,WSW,242,0.0,0.0,91,0.00,,---,0.00,VWS V14.01,2013-03-27 08:38:00,
2013-03-27 04:43:00,28.7,26.4,30.14,WSW,242,0.0,0.0,91,0.00,,---,0.00,VWS V14.01,2013-03-27 08:43:00,
2013-03-27 04:48:00,28.7,26.4,30.13,WSW,242,0.0,0.0,91,0.00,,---,0.00,VWS V14.01,2013-03-27 08:48:00,
2013-03-27 04:53:00,28.7,26.4,30.13,WSW,242,0.0,0.0,91,0.00,,---,0.00,VWS V14.01,2013-03-27 08:53:00,
2013-03-27 04:58:00,28.7,26.4,30.13,WSW,242,0.0,0.0,91,0.00,,---,0.00,VWS V14.01,2013-03-27 08:58:00,
2013-03-27 05:03:00,28.5,26.2,30.13,WSW,242,0.0,0.0,91,0.00,,---,0.00,VWS V14.01,2013-03-27 09:03:00,
2013-03-27 05:08:00,28.5,26.2,30.13,WSW,242,0.0,0.0,91,0.00,,---,0.00,VWS V14.01,2013-03-27 09:08:00,
2013-03-27 05:13:00,28.4,26.4,30.14,WSW,242,0.0,0.0,92,0.00,,---,0.00,VWS V14.01,2013-03-27 09:13:00,
2013-03-27 05:18:00,28.4,26.4,30.14,WSW,242,0.0,0.0,92,0.00,,---,0.00,VWS V14.01,2013-03-27 09:18:00,
2013-03-27 05:23:00,28.4,26.4,30.14,WSW,242,0.0,0.0,92,0.00,,---,0.00,VWS V14.01,2013-03-27 09:23:00,
2013-03-27 05:28:00,28.2,26.2,30.13,WSW,242,0.0,0.0,92,0.00,,---,0.00,VWS V14.01,2013-03-27 09:28:00,
2013-03-27 05:33:00,28.2,26.2,30.14,WSW,242,0.0,0.0,92,0.00,,---,0.00,VWS V14.01,2013-03-27 09:33:00,
2013-03-27 05:38:00,28.1,26.1,30.13,WSW,242,0.0,0.0,92,0.00,,---,0.00,VWS V14.01,2013-03-27 09:38:00,
2013-03-27 05:43:00,28.1,26.1,30.14,WSW,242,0.0,0.0,92,0.00,,---,0.00,VWS V14.01,2013-03-27 09:43:00,
2013-03-27 05:48:00,27.9,25.9,30.14,WSW,242,0.0,0.0,92,0.00,,---,0.00,VWS V14.01,2013-03-27 09:48:00,
2013-03-27 05:53:00,27.8,25.8,30.14,WSW,242,0.0,0.0,92,0.00,,---,0.00,VWS V14.01,2013-03-27 09:53:00,
2013-03-27 05:58:00,27.6,25.6,30.14,WSW,242,0.0,0.0,92,0.00,,---,0.00,VWS V14.01,2013-03-27 09:58:00,
2013-03-27 06:03:00,27.6,25.6,30.14,WSW,242,0.0,0.0,92,0.00,,---,0.00,VWS V14.01,2013-03-27 10:03:00,
2013-03-27 06:08:00,27.5,25.5,30.14,WSW,242,0.0,0.0,92,0.00,,---,0.00,VWS V14.01,2013-03-27 10:08:00,
2013-03-27 06:13:00,27.5,25.8,30.15,WSW,242,0.0,0.0,93,0.00,,---,0.00,VWS V14.01,2013-03-27 10:13:00,
2013-03-27 06:18:00,27.3,25.5,30.15,WSW,242,0.0,0.0,93,0.00,,---,0.00,VWS V14.01,2013-03-27 10:18:00,
2013-03-27 06:23:00,27.3,25.5,30.15,WSW,242,0.0,0.0,93,0.00,,---,0.00,VWS V14.01,2013-03-27 10:23:00,
2013-03-27 06:28:00,27.2,25.5,30.15,WSW,242,0.0,0.0,93,0.00,,---,0.00,VWS V14.01,2013-03-27 10:28:00,
2013-03-27 06:33:00,27.0,25.2,30.15,WSW,242,0.0,0.0,93,0.00,,---,0.00,VWS V14.01,2013-03-27 10:33:00,
2013-03-27 06:39:00,26.9,25.1,30.15,WSW,242,0.0,0.0,93,0.00,,---,0.00,VWS V14.01,2013-03-27 10:39:00,
2013-03-27 06:44:00,26.9,25.1,30.15,WSW,242,0.0,0.0,93,0.00,,---,0.00,VWS V14.01,2013-03-27 10:44:00,
2013-03-27 06:49:00,27.0,25.5,30.15,WSW,242,0.0,0.0,94,0.00,,---,0.00,VWS V14.01,2013-03-27 10:49:00,
2013-03-27 06:54:00,27.0,25.5,30.16,WSW,242,0.0,0.0,94,0.00,,---,0.00,VWS V14.01,2013-03-27 10:54:00,
2013-03-27 06:59:00,27.0,25.5,30.16,WSW,242,0.0,0.0,94,0.00,,---,0.00,VWS V14.01,2013-03-27 10:59:00,
2013-03-27 07:04:00,27.0,25.5,30.16,WSW,242,0.0,0.0,94,0.00,,---,0.00,VWS V14.01,2013-03-27 11:04:00,
2013-03-27 07:09:00,27.0,25.5,30.16,WSW,242,0.0,0.0,94,0.00,,---,0.00,VWS V14.01,2013-03-27 11:09:00,
2013-03-27 07:14:00,27.0,25.5,30.16,WSW,242,0.0,0.0,94,0.00,,---,0.00,VWS V14.01,2013-03-27 11:14:00,
2013-03-27 07:19:00,27.0,25.8,30.16,WSW,242,0.0,0.0,95,0.00,,---,0.00,VWS V14.01,2013-03-27 11:19:00,
2013-03-27 07:24:00,27.0,25.8,30.16,WSW,242,0.0,0.0,95,0.00,,---,0.00,VWS V14.01,2013-03-27 11:24:00,
2013-03-27 07:29:00,27.0,25.8,30.16,WSW,242,0.0,0.0,95,0.00,,---,0.00,VWS V14.01,2013-03-27 11:29:00,
2013-03-27 07:34:00,27.0,25.8,30.16,WSW,242,0.0,0.0,95,0.00,,---,0.00,VWS V14.01,2013-03-27 11:34:00,
2013-03-27 07:39:00,26.9,25.7,30.16,WSW,242,0.0,0.0,95,0.00,,---,0.00,VWS V14.01,2013-03-27 11:39:00,
2013-03-27 07:44:00,26.9,25.7,30.16,WSW,242,0.0,0.0,95,0.00,,---,0.00,VWS V14.01,2013-03-27 11:44:00,
2013-03-27 07:49:00,27.0,25.8,30.16,WSW,242,0.0,0.0,95,0.00,,---,0.00,VWS V14.01,2013-03-27 11:49:00,
2013-03-27 07:54:00,27.0,25.8,30.16,WSW,242,0.0,0.0,95,0.00,,---,0.00,VWS V14.01,2013-03-27 11:54:00,
2013-03-27 07:59:00,26.9,25.7,30.16,WSW,242,0.0,0.0,95,0.00,,---,0.00,VWS V14.01,2013-03-27 11:59:00,
2013-03-27 08:04:00,26.9,25.7,30.16,WSW,242,0.0,0.0,95,0.00,,---,0.00,VWS V14.01,2013-03-27 12:04:00,
2013-03-27 08:09:00,26.7,25.5,30.17,WSW,242,0.0,0.0,95,0.00,,---,0.00,VWS V14.01,2013-03-27 12:09:00,
2013-03-27 08:14:00,26.7,25.5,30.17,WSW,242,0.0,0.0,95,0.00,,---,0.00,VWS V14.01,2013-03-27 12:14:00,
2013-03-27 08:19:00,26.6,25.4,30.17,WSW,242,0.0,0.0,95,0.00,,---,0.00,VWS V14.01,2013-03-27 12:19:00,
2013-03-27 08:24:00,26.6,25.4,30.17,WSW,242,0.0,0.0,95,0.00,,---,0.00,VWS V14.01,2013-03-27 12:24:00,
2013-03-27 08:29:00,27.2,26.0,30.17,WSW,242,0.0,0.0,95,0.00,,---,0.00,VWS V14.01,2013-03-27 12:29:00,
2013-03-27 08:34:00,28.4,27.4,30.17,WSW,242,0.0,0.0,96,0.00,,---,0.00,VWS V14.01,2013-03-27 12:34:00,
2013-03-27 08:39:00,28.5,27.5,30.17,WSW,242,0.0,0.0,96,0.00,,---,0.00,VWS V14.01,2013-03-27 12:39:00,
2013-03-27 08:44:00,29.3,28.0,30.17,WSW,242,0.0,0.0,95,0.00,,---,0.00,VWS V14.01,2013-03-27 12:44:00,
2013-03-27 08:49:00,29.8,28.3,30.17,WSW,242,0.0,0.0,94,0.00,,---,0.00,VWS V14.01,2013-03-27 12:49:00,
2013-03-27 08:54:00,30.6,28.6,30.17,WSW,242,0.0,0.0,92,0.00,,---,0.00,VWS V14.01,2013-03-27 12:54:00,
2013-03-27 08:59:00,30.9,28.0,30.17,WSW,242,0.0,0.0,89,0.00,,---,0.00,VWS V14.01,2013-03-27 12:59:00,
2013-03-27 09:04:00,31.3,27.9,30.18,WSW,242,0.0,0.0,87,0.00,,---,0.00,VWS V14.01,2013-03-27 13:04:00,
2013-03-27 09:09:00,31.8,27.8,30.18,WSW,242,0.0,0.0,85,0.00,,---,0.00,VWS V14.01,2013-03-27 13:09:00,
2013-03-27 09:14:00,32.4,27.8,30.18,North,11,0.0,0.0,83,0.00,,---,0.00,VWS V14.01,2013-03-27 13:14:00,
2013-03-27 09:19:00,32.8,27.6,30.18,NNE,18,0.0,0.0,81,0.00,,---,0.00,VWS V14.01,2013-03-27 13:19:00,
2013-03-27 09:24:00,33.2,27.7,30.18,North,355,0.0,0.0,80,0.00,,---,0.00,VWS V14.01,2013-03-27 13:24:00,
2013-03-27 09:29:00,33.5,27.7,30.18,NNE,15,0.0,0.0,79,0.00,,---,0.00,VWS V14.01,2013-03-27 13:29:00,
2013-03-27 09:34:00,33.4,27.6,30.18,NNW,344,0.0,0.0,79,0.00,,---,0.00,VWS V14.01,2013-03-27 13:34:00,
2013-03-27 09:40:00,33.5,27.4,30.18,North,5,0.0,0.0,78,0.00,,---,0.00,VWS V14.01,2013-03-27 13:40:00,
2013-03-27 09:45:00,34.1,27.7,30.18,North,355,0.0,0.0,77,0.00,,---,0.00,VWS V14.01,2013-03-27 13:45:00,
2013-03-27 09:50:00,34.6,27.5,30.18,NNW,342,0.0,0.0,75,0.00,,---,0.00,VWS V14.01,2013-03-27 13:50:00,
2013-03-27 09:55:00,34.9,27.5,30.18,NNE,13,0.0,0.0,74,0.00,,---,0.00,VWS V14.01,2013-03-27 13:55:00,
2013-03-27 10:00:00,35.0,26.9,30.18,NNE,13,0.0,0.0,72,0.00,,---,0.00,VWS V14.01,2013-03-27 14:00:00,
2013-03-27 10:05:00,35.5,26.7,30.18,North,349,0.0,0.0,70,0.00,,---,0.00,VWS V14.01,2013-03-27 14:05:00,
2013-03-27 10:10:00,35.5,26.4,30.18,NNW,332,0.0,0.0,69,0.00,,---,0.00,VWS V14.01,2013-03-27 14:10:00,
2013-03-27 10:15:00,35.3,26.2,30.18,North,350,0.0,0.0,69,0.00,,---,0.00,VWS V14.01,2013-03-27 14:15:00,
2013-03-27 10:20:00,35.6,26.8,30.18,North,360,0.0,0.0,70,0.00,,---,0.00,VWS V14.01,2013-03-27 14:20:00,
2013-03-27 10:25:00,35.5,26.7,30.18,North,355,0.0,0.0,70,0.00,,---,0.00,VWS V14.01,2013-03-27 14:25:00,
2013-03-27 10:30:00,35.5,27.4,30.18,North,5,0.0,0.0,72,0.00,,---,0.00,VWS V14.01,2013-03-27 14:30:00,
2013-03-27 10:35:00,35.8,28.0,30.18,NNE,13,0.0,0.0,73,0.00,,---,0.00,VWS V14.01,2013-03-27 14:35:00,
2013-03-27 10:40:00,36.0,27.9,30.18,North,355,0.0,0.0,72,0.00,,---,0.00,VWS V14.01,2013-03-27 14:40:00,
2013-03-27 10:45:00,35.6,27.8,30.18,NNW,333,0.0,0.0,73,0.00,,---,0.00,VWS V14.01,2013-03-27 14:45:00,
2013-03-27 10:50:00,35.6,27.5,30.18,NNE,24,0.0,0.0,72,0.00,,---,0.00,VWS V14.01,2013-03-27 14:50:00,
2013-03-27 10:55:00,35.6,27.1,30.18,North,360,0.0,0.0,71,0.00,,---,0.00,VWS V14.01,2013-03-27 14:55:00,
2013-03-27 11:00:00,35.5,27.7,30.18,NE,40,0.0,0.0,73,0.00,,---,0.00,VWS V14.01,2013-03-27 15:00:00,
2013-03-27 11:05:00,35.5,27.4,30.18,NNW,338,0.0,0.0,72,0.00,,---,0.00,VWS V14.01,2013-03-27 15:05:00,
2013-03-27 11:10:00,35.6,27.5,30.18,North,355,0.0,0.0,72,0.00,,---,0.00,VWS V14.01,2013-03-27 15:10:00,
2013-03-27 11:15:00,35.8,27.7,30.18,North,5,0.0,0.0,72,0.00,,---,0.00,VWS V14.01,2013-03-27 15:15:00,
2013-03-27 11:20:00,36.5,27.7,30.18,North,5,0.0,0.0,70,0.00,,---,0.00,VWS V14.01,2013-03-27 15:20:00,
2013-03-27 11:25:00,37.0,27.8,30.18,NNE,15,0.0,0.0,69,0.00,,---,0.00,VWS V14.01,2013-03-27 15:25:00,
2013-03-27 11:30:00,37.0,27.4,30.18,NW,321,0.0,0.0,68,0.00,,---,0.00,VWS V14.01,2013-03-27 15:30:00,
2013-03-27 11:35:00,36.9,27.0,30.19,NNE,16,0.0,0.0,67,0.00,,---,0.00,VWS V14.01,2013-03-27 15:35:00,
2013-03-27 11:40:00,36.5,27.3,30.19,NE,35,0.0,0.0,69,0.00,,---,0.00,VWS V14.01,2013-03-27 15:40:00,
2013-03-27 11:45:00,36.9,27.3,30.19,NW,320,0.0,0.0,68,0.00,,---,0.00,VWS V14.01,2013-03-27 15:45:00,
2013-03-27 11:50:00,36.6,26.7,30.19,North,355,0.0,0.0,67,0.00,,---,0.00,VWS V14.01,2013-03-27 15:50:00,
2013-03-27 11:55:00,37.2,27.3,30.19,NNE,16,0.0,0.0,67,0.00,,---,0.00,VWS V14.01,2013-03-27 15:55:00,
2013-03-27 12:00:00,36.8,27.2,30.19,North,5,0.0,0.0,68,0.00,,---,0.00,VWS V14.01,2013-03-27 16:00:00,
2013-03-27 12:05:00,36.6,27.4,30.19,North,5,0.0,0.0,69,0.00,,---,0.00,VWS V14.01,2013-03-27 16:05:00,
2013-03-27 12:10:00,36.6,27.0,30.19,WNW,300,0.0,0.0,68,0.00,,---,0.00,VWS V14.01,2013-03-27 16:10:00,
2013-03-27 12:15:00,36.9,27.7,30.19,NW,319,0.0,0.0,69,0.00,,---,0.00,VWS V14.01,2013-03-27 16:15:00,
2013-03-27 12:20:00,37.3,27.7,30.19,North,360,0.0,0.0,68,0.00,,---,0.00,VWS V14.01,2013-03-27 16:20:00,
2013-03-27 12:25:00,37.5,27.9,30.19,North,355,0.0,0.0,68,0.00,,---,0.00,VWS V14.01,2013-03-27 16:25:00,
2013-03-27 12:30:00,37.3,28.1,30.19,NNW,344,0.0,0.0,69,0.00,,---,0.00,VWS V14.01,2013-03-27 16:30:00,
2013-03-27 12:35:00,37.9,28.3,30.19,NW,321,0.0,0.0,68,0.00,,---,0.00,VWS V14.01,2013-03-27 16:35:00,
2013-03-27 12:40:00,38.5,28.1,30.19,NW,323,0.0,0.0,66,0.00,,---,0.00,VWS V14.01,2013-03-27 16:40:00,
2013-03-27 12:45:00,38.5,28.1,30.19,NE,38,0.0,0.0,66,0.00,,---,0.00,VWS V14.01,2013-03-27 16:45:00,
2013-03-27 12:50:00,38.5,28.1,30.19,North,5,0.0,0.0,66,0.00,,---,0.00,VWS V14.01,2013-03-27 16:50:00,
2013-03-27 12:55:00,38.5,27.8,30.19,WNW,298,0.0,0.0,65,0.00,,---,0.00,VWS V14.01,2013-03-27 16:55:00,
2013-03-27 13:00:00,38.3,28.0,30.19,North,350,0.0,0.0,66,0.00,,---,0.00,VWS V14.01,2013-03-27 17:00:00,
2013-03-27 13:06:00,38.5,28.1,30.19,NNW,342,0.0,0.0,66,0.00,,---,0.00,VWS V14.01,2013-03-27 17:06:00,
2013-03-27 13:11:00,38.6,27.9,30.19,NNE,12,0.0,0.0,65,0.00,,---,0.00,VWS V14.01,2013-03-27 17:11:00,
2013-03-27 13:16:00,38.8,27.7,30.19,North,355,0.0,0.0,64,0.00,,---,0.00,VWS V14.01,2013-03-27 17:16:00,
2013-03-27 13:21:00,38.9,27.8,30.19,North,355,0.0,0.0,64,0.00,,---,0.00,VWS V14.01,2013-03-27 17:21:00,
2013-03-27 13:25:00,38.8,27.7,30.19,North,5,0.0,0.0,64,0.00,,---,0.00,VWS V14.01,2013-03-27 17:25:00,
2013-03-27 13:31:00,38.3,27.2,30.19,North,355,0.0,0.0,64,0.00,,---,0.00,VWS V14.01,2013-03-27 17:31:00,
2013-03-27 13:36:00,38.3,27.2,30.19,North,5,0.0,0.0,64,0.00,,---,0.00,VWS V14.01,2013-03-27 17:36:00,
2013-03-27 13:41:00,38.5,27.8,30.19,NNW,339,0.0,0.0,65,0.00,,---,0.00,VWS V14.01,2013-03-27 17:41:00,
2013-03-27 13:46:00,38.8,27.7,30.19,NNE,13,0.0,0.0,64,0.00,,---,0.00,VWS V14.01,2013-03-27 17:46:00,
2013-03-27 13:51:00,38.9,27.4,30.19,NW,318,0.0,0.0,63,0.00,,---,0.00,VWS V14.01,2013-03-27 17:51:00,
2013-03-27 13:56:00,39.1,27.6,30.19,NNE,24,0.0,0.0,63,0.00,,---,0.00,VWS V14.01,2013-03-27 17:56:00,
2013-03-27 14:01:00,39.2,27.7,30.19,North,355,0.0,0.0,63,0.00,,---,0.00,VWS V14.01,2013-03-27 18:01:00,
2013-03-27 14:06:00,39.6,28.1,30.19,NNW,343,0.0,0.0,63,0.00,,---,0.00,VWS V14.01,2013-03-27 18:06:00,
2013-03-27 14:11:00,39.3,27.8,30.19,North,355,0.0,0.0,63,0.00,,---,0.00,VWS V14.01,2013-03-27 18:11:00,
2013-03-27 14:16:00,39.2,27.7,30.19,NE,40,0.0,0.0,63,0.00,,---,0.00,VWS V14.01,2013-03-27 18:16:00,
2013-03-27 14:21:00,39.8,27.9,30.19,NNW,330,0.0,0.0,62,0.00,,---,0.00,VWS V14.01,2013-03-27 18:21:00,
2013-03-27 14:26:00,40.5,28.5,30.19,North,9,0.0,0.0,62,0.00,,---,0.00,VWS V14.01,2013-03-27 18:26:00,
2013-03-27 14:31:00,41.5,27.4,30.19,NNW,346,0.0,0.0,57,0.00,,---,0.00,VWS V14.01,2013-03-27 18:31:00,
2013-03-27 14:36:00,41.5,27.8,30.19,North,9,0.0,0.0,58,0.00,,---,0.00,VWS V14.01,2013-03-27 18:36:00,
2013-03-27 14:41:00,41.6,27.9,30.18,North,351,0.0,0.0,58,0.00,,---,0.00,VWS V14.01,2013-03-27 18:41:00,
2013-03-27 14:46:00,41.8,27.7,30.18,North,351,0.0,0.0,57,0.00,,---,0.00,VWS V14.01,2013-03-27 18:46:00,
2013-03-27 14:51:00,41.2,27.1,30.19,WNW,302,0.0,0.0,57,0.00,,---,0.00,VWS V14.01,2013-03-27 18:51:00,
2013-03-27 14:56:00,40.3,27.1,30.18,NE,34,0.0,0.0,59,0.00,,---,0.00,VWS V14.01,2013-03-27 18:56:00,
2013-03-27 15:01:00,40.3,27.1,30.18,NW,326,0.0,0.0,59,0.00,,---,0.00,VWS V14.01,2013-03-27 19:01:00,
2013-03-27 15:07:00,40.8,27.2,30.19,NNE,13,0.0,0.0,58,0.00,,---,0.00,VWS V14.01,2013-03-27 19:07:00,
2013-03-27 15:12:00,40.5,27.3,30.19,North,5,0.0,0.0,59,0.00,,---,0.00,VWS V14.01,2013-03-27 19:12:00,
2013-03-27 15:17:00,40.9,27.3,30.19,NNE,16,0.0,0.0,58,0.00,,---,0.00,VWS V14.01,2013-03-27 19:17:00,
2013-03-27 15:22:00,41.5,27.4,30.18,NNW,340,0.0,0.0,57,0.00,,---,0.00,VWS V14.01,2013-03-27 19:22:00,
2013-03-27 15:27:00,41.6,27.5,30.18,North,360,0.0,0.0,57,0.00,,---,0.00,VWS V14.01,2013-03-27 19:27:00,
2013-03-27 15:32:00,41.9,27.4,30.18,NW,319,0.0,0.0,56,0.00,,---,0.00,VWS V14.01,2013-03-27 19:32:00,
2013-03-27 15:37:00,41.6,27.5,30.18,NNW,340,0.0,0.0,57,0.00,,---,0.00,VWS V14.01,2013-03-27 19:37:00,
2013-03-27 15:42:00,42.1,28.0,30.18,NW,312,0.0,0.0,57,0.00,,---,0.00,VWS V14.01,2013-03-27 19:42:00,
2013-03-27 15:47:00,42.3,27.7,30.18,NNE,21,0.0,0.0,56,0.00,,---,0.00,VWS V14.01,2013-03-27 19:47:00,
2013-03-27 15:52:00,42.6,27.6,30.18,North,5,0.0,0.0,55,0.00,,---,0.00,VWS V14.01,2013-03-27 19:52:00,
2013-03-27 15:57:00,43.1,27.6,30.18,NW,305,0.0,0.0,54,0.00,,---,0.00,VWS V14.01,2013-03-27 19:57:00,
2013-03-27 16:02:00,42.9,27.4,30.18,NNE,21,0.0,0.0,54,0.00,,---,0.00,VWS V14.01,2013-03-27 20:02:00,
2013-03-27 16:07:00,43.1,28.0,30.18,West,269,0.0,0.0,55,0.00,,---,0.00,VWS V14.01,2013-03-27 20:07:00,
2013-03-27 16:12:00,42.1,26.7,30.18,North,355,0.0,0.0,54,0.00,,---,0.00,VWS V14.01,2013-03-27 20:12:00,
2013-03-27 16:17:00,41.1,27.0,30.18,NE,34,0.0,0.0,57,0.00,,---,0.00,VWS V14.01,2013-03-27 20:17:00,
2013-03-27 16:22:00,40.5,26.5,30.18,NNE,19,0.0,0.0,57,0.00,,---,0.00,VWS V14.01,2013-03-27 20:22:00,
2013-03-27 16:27:00,40.3,26.3,30.18,North,360,0.0,0.0,57,0.00,,---,0.00,VWS V14.01,2013-03-27 20:27:00,
2013-03-27 16:32:00,40.5,26.9,30.18,NNW,330,0.0,0.0,58,0.00,,---,0.00,VWS V14.01,2013-03-27 20:32:00,
2013-03-27 16:37:00,40.6,27.0,30.18,North,5,0.0,0.0,58,0.00,,---,0.00,VWS V14.01,2013-03-27 20:37:00,
2013-03-27 16:42:00,40.9,27.3,30.18,North,355,0.0,0.0,58,0.00,,---,0.00,VWS V14.01,2013-03-27 20:42:00,
2013-03-27 16:47:00,41.2,26.7,30.18,North,9,0.0,0.0,56,0.00,,---,0.00,VWS V14.01,2013-03-27 20:47:00,
2013-03-27 16:53:00,41.2,26.7,30.18,NNE,31,0.0,0.0,56,0.00,,---,0.00,VWS V14.01,2013-03-27 20:53:00,
2013-03-27 16:58:00,41.1,27.0,30.18,NNW,328,0.0,0.0,57,0.00,,---,0.00,VWS V14.01,2013-03-27 20:58:00,
2013-03-27 17:03:00,41.5,27.0,30.18,NNE,26,0.0,0.0,56,0.00,,---,0.00,VWS V14.01,2013-03-27 21:03:00,
2013-03-27 17:08:00,41.9,26.9,30.18,North,360,0.0,0.0,55,0.00,,---,0.00,VWS V14.01,2013-03-27 21:08:00,
2013-03-27 17:13:00,41.6,26.6,30.18,NNE,28,0.0,0.0,55,0.00,,---,0.00,VWS V14.01,2013-03-27 21:13:00,
2013-03-27 17:18:00,41.9,26.9,30.18,North,350,0.0,0.0,55,0.00,,---,0.00,VWS V14.01,2013-03-27 21:18:00,
2013-03-27 17:23:00,42.2,27.2,30.18,NNW,344,0.0,0.0,55,0.00,,---,0.00,VWS V14.01,2013-03-27 21:23:00,
2013-03-27 17:28:00,42.1,27.1,30.18,NNE,13,0.0,0.0,55,0.00,,---,0.00,VWS V14.01,2013-03-27 21:28:00,
2013-03-27 17:33:00,42.1,27.1,30.18,NNE,21,0.0,0.0,55,0.00,,---,0.00,VWS V14.01,2013-03-27 21:33:00,
2013-03-27 17:38:00,41.8,27.3,30.18,NNE,32,0.0,0.0,56,0.00,,---,0.00,VWS V14.01,2013-03-27 21:38:00,
2013-03-27 17:43:00,41.3,26.8,30.18,NNE,13,0.0,0.0,56,0.00,,---,0.00,VWS V14.01,2013-03-27 21:43:00,
2013-03-27 17:48:00,41.2,27.1,30.18,NE,38,0.0,0.0,57,0.00,,---,0.00,VWS V14.01,2013-03-27 21:48:00,
2013-03-27 17:53:00,41.1,27.0,30.18,North,5,0.0,0.0,57,0.00,,---,0.00,VWS V14.01,2013-03-27 21:53:00,
2013-03-27 17:58:00,41.2,26.7,30.18,North,5,0.0,0.0,56,0.00,,---,0.00,VWS V14.01,2013-03-27 21:58:00,
2013-03-27 18:03:00,41.3,26.8,30.18,North,5,0.0,0.0,56,0.00,,---,0.00,VWS V14.01,2013-03-27 22:03:00,
2013-03-27 18:08:00,40.9,26.9,30.19,NNW,344,0.0,0.0,57,0.00,,---,0.00,VWS V14.01,2013-03-27 22:08:00,
2013-03-27 18:13:00,40.8,27.2,30.19,North,360,0.0,0.0,58,0.00,,---,0.00,VWS V14.01,2013-03-27 22:13:00,
2013-03-27 18:18:00,40.5,27.3,30.19,NNW,348,0.0,0.0,59,0.00,,---,0.00,VWS V14.01,2013-03-27 22:18:00,
2013-03-27 18:23:00,40.3,27.1,30.19,NNE,19,0.0,0.0,59,0.00,,---,0.00,VWS V14.01,2013-03-27 22:23:00,
2013-03-27 18:28:00,40.3,27.1,30.19,NNW,338,0.0,0.0,59,0.00,,---,0.00,VWS V14.01,2013-03-27 22:28:00,
2013-03-27 18:33:00,40.5,27.3,30.19,NNW,336,0.0,0.0,59,0.00,,---,0.00,VWS V14.01,2013-03-27 22:33:00,
2013-03-27 18:38:00,40.3,27.1,30.19,North,9,0.0,0.0,59,0.00,,---,0.00,VWS V14.01,2013-03-27 22:38:00,
2013-03-27 18:43:00,40.2,27.4,30.19,NNE,16,0.0,0.0,60,0.00,,---,0.00,VWS V14.01,2013-03-27 22:43:00,
2013-03-27 18:48:00,39.9,27.2,30.19,WNW,288,0.0,0.0,60,0.00,,---,0.00,VWS V14.01,2013-03-27 22:48:00,
2013-03-27 18:53:00,39.9,27.2,30.20,NNE,24,0.0,0.0,60,0.00,,---,0.00,VWS V14.01,2013-03-27 22:53:00,
2013-03-27 18:58:00,39.9,27.2,30.20,NNE,16,0.0,0.0,60,0.00,,---,0.00,VWS V14.01,2013-03-27 22:58:00,
2013-03-27 19:03:00,39.8,27.1,30.20,North,355,0.0,0.0,60,0.00,,---,0.00,VWS V14.01,2013-03-27 23:03:00,
2013-03-27 19:08:00,39.5,26.8,30.20,NNW,347,0.0,0.0,60,0.00,,---,0.00,VWS V14.01,2013-03-27 23:08:00,
2013-03-27 19:13:00,39.5,26.8,30.20,NNW,344,0.0,0.0,60,0.00,,---,0.00,VWS V14.01,2013-03-27 23:13:00,
2013-03-27 19:19:00,39.3,27.0,30.20,NE,36,0.0,0.0,61,0.00,,---,0.00,VWS V14.01,2013-03-27 23:19:00,
2013-03-27 19:24:00,39.2,26.9,30.20,NNE,12,0.0,0.0,61,0.00,,---,0.00,VWS V14.01,2013-03-27 23:24:00,
2013-03-27 19:29:00,38.9,27.0,30.20,North,355,0.0,0.0,62,0.00,,---,0.00,VWS V14.01,2013-03-27 23:29:00,
2013-03-27 19:34:00,38.6,26.7,30.20,NNE,17,0.0,0.0,62,0.00,,---,0.00,VWS V14.01,2013-03-27 23:34:00,
2013-03-27 19:39:00,38.3,26.8,30.20,North,360,0.0,0.0,63,0.00,,---,0.00,VWS V14.01,2013-03-27 23:39:00,
2013-03-27 19:44:00,38.0,26.9,30.20,NNW,329,0.0,0.0,64,0.00,,---,0.00,VWS V14.01,2013-03-27 23:44:00,
2013-03-27 19:49:00,37.9,26.8,30.20,North,360,0.0,0.0,64,0.00,,---,0.00,VWS V14.01,2013-03-27 23:49:00,
2013-03-27 19:54:00,37.6,26.9,30.20,WNW,294,0.0,0.0,65,0.00,,---,0.00,VWS V14.01,2013-03-27 23:54:00,
2013-03-27 19:59:00,37.5,26.8,30.20,NNE,15,0.0,0.0,65,0.00,,---,0.00,VWS V14.01,2013-03-27 23:59:00,
2013-03-27 20:04:00,37.2,26.9,30.20,NNW,346,0.0,0.0,66,0.00,,---,0.00,VWS V14.01,2013-03-28 00:04:00,
2013-03-27 20:09:00,37.0,26.7,30.20,North,355,0.0,0.0,66,0.00,,---,0.00,VWS V14.01,2013-03-28 00:09:00,
2013-03-27 20:14:00,36.8,26.9,30.21,North,350,0.0,0.0,67,0.00,,---,0.00,VWS V14.01,2013-03-28 00:14:00,
2013-03-27 20:19:00,36.6,26.7,30.21,NNE,18,0.0,0.0,67,0.00,,---,0.00,VWS V14.01,2013-03-28 00:19:00,
2013-03-27 20:24:00,36.5,27.0,30.21,NNW,345,0.0,0.0,68,0.00,,---,0.00,VWS V14.01,2013-03-28 00:24:00,
2013-03-27 20:29:00,36.2,27.0,30.21,NNW,346,0.0,0.0,69,0.00,,---,0.00,VWS V14.01,2013-03-28 00:29:00,
2013-03-27 20:34:00,36.0,26.8,30.21,North,360,0.0,0.0,69,0.00,,---,0.00,VWS V14.01,2013-03-28 00:34:00,
2013-03-27 20:39:00,35.9,27.1,30.21,NNE,17,0.0,0.0,70,0.00,,---,0.00,VWS V14.01,2013-03-28 00:39:00,
2013-03-27 20:44:00,35.8,27.3,30.21,NNE,22,0.0,0.0,71,0.00,,---,0.00,VWS V14.01,2013-03-28 00:44:00,
2013-03-27 20:49:00,35.6,27.1,30.21,North,360,0.0,0.0,71,0.00,,---,0.00,VWS V14.01,2013-03-28 00:49:00,
2013-03-27 20:54:00,35.5,27.0,30.21,North,9,0.0,0.0,71,0.00,,---,0.00,VWS V14.01,2013-03-28 00:54:00,
2013-03-27 20:59:00,35.3,27.2,30.21,NNE,26,0.0,0.0,72,0.00,,---,0.00,VWS V14.01,2013-03-28 00:59:00,
2013-03-27 21:04:00,35.2,27.1,30.21,North,5,0.0,0.0,72,0.00,,---,0.00,VWS V14.01,2013-03-28 01:04:00,
2013-03-27 21:09:00,35.0,26.9,30.22,NNE,16,0.0,0.0,72,0.00,,---,0.00,VWS V14.01,2013-03-28 01:09:00,
2013-03-27 21:14:00,34.9,27.1,30.22,NNE,23,0.0,0.0,73,0.00,,---,0.00,VWS V14.01,2013-03-28 01:14:00,
2013-03-27 21:19:00,34.9,27.1,30.22,NNE,15,0.0,0.0,73,0.00,,---,0.00,VWS V14.01,2013-03-28 01:19:00,
2013-03-27 21:24:00,34.7,27.0,30.22,NNE,17,0.0,0.0,73,0.00,,---,0.00,VWS V14.01,2013-03-28 01:24:00,
2013-03-27 21:29:00,34.6,27.2,30.22,NNE,16,0.0,0.0,74,0.00,,---,0.00,VWS V14.01,2013-03-28 01:29:00,
2013-03-27 21:34:00,34.6,26.9,30.22,NNE,22,0.0,0.0,73,0.00,,---,0.00,VWS V14.01,2013-03-28 01:34:00,
2013-03-27 21:39:00,34.6,26.9,30.22,North,5,0.0,0.0,73,0.00,,---,0.00,VWS V14.01,2013-03-28 01:39:00,
2013-03-27 21:44:00,34.6,26.9,30.22,North,5,0.0,0.0,73,0.00,,---,0.00,VWS V14.01,2013-03-28 01:44:00,
2013-03-27 21:49:00,34.6,26.9,30.22,North,360,0.0,0.0,73,0.00,,---,0.00,VWS V14.01,2013-03-28 01:49:00,
2013-03-27 21:54:00,34.7,27.0,30.23,NNE,32,0.0,0.0,73,0.00,,---,0.00,VWS V14.01,2013-03-28 01:54:00,
2013-03-27 21:59:00,34.6,26.9,30.23,North,351,0.0,0.0,73,0.00,,---,0.00,VWS V14.01,2013-03-28 01:59:00,
2013-03-27 22:04:00,34.6,26.9,30.23,North,5,0.0,0.0,73,0.00,,---,0.00,VWS V14.01,2013-03-28 02:04:00,
2013-03-27 22:09:00,34.4,27.0,30.23,NNW,345,0.0,0.0,74,0.00,,---,0.00,VWS V14.01,2013-03-28 02:09:00,
2013-03-27 22:14:00,34.4,27.0,30.23,NNE,24,0.0,0.0,74,0.00,,---,0.00,VWS V14.01,2013-03-28 02:14:00,
2013-03-27 22:19:00,34.3,26.9,30.23,North,5,0.0,0.0,74,0.00,,---,0.00,VWS V14.01,2013-03-28 02:19:00,
2013-03-27 22:24:00,34.0,26.9,30.23,North,5,0.0,0.0,75,0.00,,---,0.00,VWS V14.01,2013-03-28 02:24:00,
2013-03-27 22:29:00,33.8,26.7,30.23,North,5,0.0,0.0,75,0.00,,---,0.00,VWS V14.01,2013-03-28 02:29:00,
2013-03-27 22:34:00,33.7,27.0,30.23,North,5,0.0,0.0,76,0.00,,---,0.00,VWS V14.01,2013-03-28 02:34:00,
2013-03-27 22:39:00,33.7,27.0,30.23,North,11,0.0,0.0,76,0.00,,---,0.00,VWS V14.01,2013-03-28 02:39:00,
2013-03-27 22:44:00,33.5,26.8,30.23,NNE,17,0.0,0.0,76,0.00,,---,0.00,VWS V14.01,2013-03-28 02:44:00,
2013-03-27 22:50:00,33.2,26.5,30.23,NNE,15,0.0,0.0,76,0.00,,---,0.00,VWS V14.01,2013-03-28 02:50:00,
2013-03-27 22:55:00,33.1,26.4,30.23,North,5,0.0,0.0,76,0.00,,---,0.00,VWS V14.01,2013-03-28 02:55:00,
2013-03-27 23:00:00,33.1,26.4,30.23,North,9,0.0,0.0,76,0.00,,---,0.00,VWS V14.01,2013-03-28 03:00:00,
2013-03-27 23:05:00,32.9,26.2,30.24,North,9,0.0,0.0,76,0.00,,---,0.00,VWS V14.01,2013-03-28 03:05:00,
2013-03-27 23:10:00,32.9,26.2,30.24,North,9,0.0,0.0,76,0.00,,---,0.00,VWS V14.01,2013-03-28 03:10:00,
2013-03-27 23:15:00,32.8,26.1,30.23,NNE,22,0.0,0.0,76,0.00,,---,0.00,VWS V14.01,2013-03-28 03:15:00,
2013-03-27 23:20:00,32.8,26.1,30.23,North,360,0.0,0.0,76,0.00,,---,0.00,VWS V14.01,2013-03-28 03:20:00,
2013-03-27 23:25:00,32.8,26.1,30.23,North,360,0.0,0.0,76,0.00,,---,0.00,VWS V14.01,2013-03-28 03:25:00,
2013-03-27 23:30:00,32.8,26.1,30.24,North,5,0.0,0.0,76,0.00,,---,0.00,VWS V14.01,2013-03-28 03:30:00,
2013-03-27 23:35:00,32.8,26.4,30.24,North,355,0.0,0.0,77,0.00,,---,0.00,VWS V14.01,2013-03-28 03:35:00,
2013-03-27 23:40:00,32.8,26.1,30.24,North,355,0.0,0.0,76,0.00,,---,0.00,VWS V14.01,2013-03-28 03:40:00,
2013-03-27 23:45:00,32.8,26.1,30.24,NNW,338,0.0,0.0,76,0.00,,---,0.00,VWS V14.01,2013-03-28 03:45:00,
2013-03-27 23:50:00,32.8,26.4,30.24,NNW,338,0.0,0.0,77,0.00,,---,0.00,VWS V14.01,2013-03-28 03:50:00,
2013-03-27 23:55:00,32.7,26.3,30.23,NNW,338,0.0,0.0,77,0.00,,---,0.00,VWS V14.01,2013-03-28 03:55:00,